FW2611 Weather Reports


Display with metric or nautical units.
time (UTC)temp
F
wind
direction
speed
MPH
gust
MPH
rain 1hr
in
rain 24hr
in
rain mn
in
humidity
%
barometer
mb
20260502123012 53 296 3.0 9.0 0.00 0.00 0.00 78 1013.0
20260502121520 52 258 2.0 9.0 0.00 0.00 0.00 78 1013.1
20260502114506 52 290 4.0 9.0 0.00 0.00 0.00 80 1013.1
20260502113012 51 292 5.0 8.0 0.00 0.00 0.00 80 1013.0
20260502111521 51 258 4.0 7.0 0.00 0.00 0.00 81 1013.0
20260502110024 51 269 0.0 6.0 0.00 0.00 0.00 82 1012.9
20260502104508 51 278 3.0 7.0 0.00 0.00 0.00 82 1012.9
20260502103014 50 234 1.0 3.0 0.00 0.00 0.00 82 1012.6
20260502101515 50 231 0.0 3.0 0.00 0.00 0.00 82 1012.2
20260502091516 50 221 0.0 3.0 0.00 0.00 0.00 81 1012.5
20260502071526 51 215 6.0 16.0 0.00 0.00 0.00 86 1012.4
20260502070047 51 221 7.0 14.0 0.00 0.00 0.00 86 1012.5
20260502064517 51 173 7.0 15.0 0.00 0.00 0.00 86 1012.6
20260502063026 51 176 6.0 14.0 0.00 0.00 0.00 85 1012.8
20260502061522 51 166 6.0 17.0 0.00 0.00 0.00 85 1012.7
20260502060036 51 205 7.0 18.0 0.00 0.00 0.00 85 1013.2
20260502054509 51 165 8.0 16.0 0.00 0.00 0.00 85 1013.3
20260502053017 51 177 8.0 14.0 0.00 0.00 0.00 85 1013.3
20260502051505 51 201 8.0 15.0 0.00 0.00 0.00 84 1013.5
20260502050010 51 195 7.0 16.0 0.00 0.00 0.00 83 1013.7
20260502044510 50 182 8.0 15.0 0.00 0.00 0.00 83 1013.6
20260502043011 50 136 7.0 14.0 0.00 0.00 0.00 83 1013.5
20260502041531 50 177 7.0 14.0 0.00 0.00 0.00 83 1013.6
20260502040043 50 190 7.0 16.0 0.00 0.00 0.00 83 1013.5
20260502034506 50 205 8.0 17.0 0.00 0.00 0.00 82 1013.3
20260502033025 50 188 7.0 20.0 0.00 0.00 0.00 83 1013.4
20260502031517 50 198 11.0 18.0 0.00 0.00 0.00 82 1013.3
20260502030020 51 178 10.0 18.0 0.00 0.00 0.00 82 1013.4
20260502024522 51 194 10.0 18.0 0.00 0.00 0.00 82 1013.8
20260502023020 51 233 6.0 15.0 0.00 0.00 0.00 82 1014.1
20260502021511 51 213 6.0 14.0 0.00 0.00 0.00 82 1014.1
20260502020017 51 206 7.0 18.0 0.00 0.00 0.00 82 1014.0
20260502014529 51 175 10.0 18.0 0.00 0.00 0.00 81 1013.9
20260502013025 51 180 10.0 18.0 0.00 0.00 0.00 80 1013.9
20260502011510 51 163 9.0 15.0 0.00 0.00 0.00 81 1013.8
20260502010015 51 203 6.0 15.0 0.00 0.00 0.00 79 1013.6
20260502004518 51 173 6.0 16.0 0.00 0.00 0.00 78 1013.5
20260502003024 51 207 5.0 12.0 0.00 0.00 0.00 77 1013.3
20260502001531 51 189 8.0 14.0 0.00 0.00 0.00 76 1013.4
20260502000013 52 199 7.0 12.0 0.00 0.00 0.00 76 1013.4
20260501234516 52 198 5.0 15.0 0.00 0.00 0.00 73 1013.2
20260501233018 53 213 7.0 15.0 0.00 0.00 0.00 70 1013.1
20260501231527 55 179 8.0 16.0 0.00 0.00 0.00 69 1013.1
20260501230047 56 167 9.0 17.0 0.00 0.00 0.00 67 1013.0
20260501224512 57 179 8.0 17.0 0.00 0.00 0.00 65 1012.8
20260501223019 57 199 9.0 18.0 0.00 0.00 0.00 65 1013.0
20260501221522 58 228 10.0 17.0 0.00 0.00 0.00 64 1013.0
20260501220022 58 216 9.0 18.0 0.00 0.00 0.00 63 1012.9
20260501214506 59 179 9.0 19.0 0.00 0.00 0.00 63 1013.1
20260501213011 59 188 8.0 19.0 0.00 0.00 0.00 64 1013.1
20260501211516 59 173 11.0 21.0 0.00 0.00 0.00 63 1013.1
20260501210020 59 185 9.0 20.0 0.00 0.00 0.00 63 1012.9
20260501204523 59 153 11.0 19.0 0.00 0.00 0.00 63 1012.9
20260501203020 60 221 10.0 21.0 0.00 0.00 0.00 61 1012.9
20260501201514 61 222 7.0 21.0 0.00 0.00 0.00 58 1012.9
20260501200019 62 209 8.0 17.0 0.00 0.00 0.00 57 1013.0
20260501194523 64 206 6.0 16.0 0.00 0.00 0.00 52 1013.0
20260501193026 63 204 5.0 17.0 0.00 0.00 0.00 50 1013.1
20260501191511 65 221 5.0 13.0 0.00 0.00 0.00 47 1013.3
20260501190017 64 186 4.0 14.0 0.00 0.00 0.00 48 1013.3
20260501184525 62 155 7.0 16.0 0.00 0.00 0.00 53 1013.4
20260501183022 62 186 7.0 16.0 0.00 0.00 0.00 55 1013.6
20260501181527 59 188 8.0 21.0 0.00 0.00 0.00 64 1013.6
20260501180015 58 117 14.0 22.0 0.00 0.01 0.00 64 1013.6
20260501174517 59 170 12.0 20.0 0.00 0.01 0.00 60 1013.7
20260501173026 60 209 7.0 15.0 0.00 0.01 0.00 56 1013.9
20260501171527 60 137 8.0 19.0 0.00 0.01 0.00 57 1014.1
20260501170029 60 215 7.0 16.0 0.00 0.01 0.00 58 1014.2
20260501164523 60 167 6.0 14.0 0.00 0.01 0.00 57 1014.2
20260501163021 59 142 5.0 15.0 0.00 0.01 0.00 57 1014.3
20260501161503 60 172 6.0 14.0 0.00 0.01 0.00 56 1014.4
20260501160005 60 171 4.0 9.0 0.00 0.01 0.00 52 1014.5
20260501154506 59 254 5.0 10.0 0.00 0.01 0.00 42 1014.6
20260501153004 58 251 3.0 9.0 0.00 0.01 0.00 45 1014.9
20260501151503 58 285 4.0 9.0 0.00 0.01 0.00 46 1015.1
20260501150014 57 270 3.0 10.0 0.00 0.01 0.00 49 1015.1
20260501144508 56 255 5.0 12.0 0.00 0.01 0.00 49 1015.1
20260501143008 55 243 3.0 10.0 0.00 0.01 0.00 53 1015.0
20260501141505 55 279 2.0 8.0 0.00 0.01 0.00 52 1015.0